Regional Weather Roundup
Issued by NWS

Home | Current Version | Previous Version | Graphics & Text | Print | Product List | Glossary On
Versions: 1 2 3 4 5 6 7 8 9 10 11 12 13 14 15 16 17 18 19 20 21 22 23 24 25 26 27 28 29 30 31 32 33 34 35 36 37 38 39 40 41 42 43 44 45 46 47 48 49 50
227
ASUS43 KLMK 170002
RWRKY
KENTUCKY REGIONAL WEATHER ROUNDUP
NATIONAL WEATHER SERVICE LOUISVILLE KY
700 PM EST MON JAN 16 2017

NOTE "FAIR" INDICATES FEW OR NO CLOUDS BELOW 12,000 FEET
WITH NO SIGNIFICANT WEATHER AND/OR OBSTRUCTIONS TO VISIBILITY.

KYZ001>023-026-027-061>063-070>075-170100-
WESTERN AND SOUTH CENTRAL KENTUCKY

CITY           SKY/WX    TMP DP  RH WIND       PRES   REMARKS
PADUCAH        LGT RAIN  63  55  75 SE13      29.97F
HENDERSON      CLOUDY    55  52  88 SE8       30.01F
OWENSBORO      CLOUDY    57  54  89 SE8       30.05F
HOPKINSVILLE   MOCLDY    63  53  69 S8        30.05F
BOWLING GREEN  CLOUDY    65  51  60 S8        30.10S
GLASGOW        NOT AVBL
$$

KYZ024-025-028>034-038-045-046-053-170100-
NORTH CENTRAL KENTUCKY

CITY           SKY/WX    TMP DP  RH WIND       PRES   REMARKS
LOUISVILLE/SDF LGT RAIN  53  51  93 SE3       30.11F
LOUISVILLE/LOU LGT RAIN  54  52  93 CALM      30.12F
FORT KNOX      CLOUDY    52  52 100 E6        30.09F
$$

KYZ035>037-039>044-047>052-055>060-089>105-170100-
NORTHEAST KENTUCKY

CITY           SKY/WX    TMP DP  RH WIND       PRES   REMARKS
LEXINGTON      LGT RAIN  58  53  84 SE6       30.15R
COVINGTON      LGT RAIN  49  49 100 SE5       30.14F FOG
FRANKFORT      CLOUDY    54  51  90 E3        30.12S
$$

KYZ054-064>069-076>088-106>120-170100-
SOUTHEAST KENTUCKY

CITY           SKY/WX    TMP DP  RH WIND       PRES   REMARKS
JACKSON        CLOUDY    60  48  64 CALM      30.18F
LONDON         CLOUDY    58  49  72 S3        30.18S
SOMERSET       CLOUDY    59  52  77 S3        30.18S
MIDDLESBORO    CLOUDY    57  53  85 CALM      30.21F
MONTICELLO     MOCLDY    61  54  77 E8        30.18R
$$





USA.gov is the U.S. government's official web portal to all federal, state and local government web resources and services.